STARLINK-33924, 64149

Orbit data source: Space-Track

STARLINK-33924, 64149 is a payload satellite owned by SpaceX/Seattle (US) in SSO that was launched on Tue, 27 May 2025 UTC via an FALCON 9 launch vehicle from the Air Force Western Test Range (AFWTR). Payload-class satellites include a variety of spacecraft equipped with specific instruments for various scientific and technological missions. These include communications satellites like Starlink; space stations such as the ISS; scientific satellites like the Hubble; Earth observation satellites from companies like Planet Labs, Umbra, and HawkEye 360; GPS; miniature CubeSats for education and research; and military/defense satellites.

Loading next visibility...
Identifier
64149, 2025-112D
Orbit
SSO
Country
Flag of USUS
Related business
Manufacturer
SpaceX/Seattle
Mission
Operational Commercial Communications
Bus & Motor
STARLINK V2MO, Unknown motor
Mass
575 kg wet, ~530 kg dry
Launch date (UTC)
2025-05-27 (1 year ago)
Launch vehicle
FALCON 9
Launch site
Air Force Western Test Range (AFWTR)
Object type
Payload
Rocket body
Debris
Shape & HBR
Box + 1 Pan, 17.7 m
Radar Cross Section
41.120 m², Large (>1 m²)

Expand to show TLE details & history
Last TLE update: 18 hours ago

TLE from 18 hours ago
0 STARLINK-33924
1 64149U 25112D   26236.40003899  .00015840  00000-0  49214-3 0  9998
2 64149  97.2842 283.8331 0000480  74.5070 285.6226 15.33432944 68598
Epoch: 2026-08-24T09:36Z
TLE epoch observation values (Epoch: 2026-08-24T09:36:03.368Z)
Latitude
-0.00001°
Longitude
167.13678°
Altitude
468.603 km
Speed
7.632 km/s
True Right ascension
18h 55m 19s
True Declination
0° 00' 00"
Sunlit
Object was in full shadow at epoch
Visualization orbit readout
Latitude
Unknown
Longitude
Unknown
Altitude
Unknown
Speed
Unknown
Apparent Right ascension
Unknown
Apparent Declination
Unknown
Sunlit
N/A
Visualization observer readout
Local Sidereal Time
18:43:51
Azimuth
Unknown
Elevation
Unknown
Doppler factor
Unknown
Orbital elements
Apogee altitude
462.85 km
Perigee altitude
462.193 km
Semi-major axis
6,840.659 km
Eccentricity
0.00005
Inclination
97.2842°
RAAN
283.8331°
Arg. of periapsis
74.507°
True anomaly
285.6173°
Mean anomaly
285.6226°
Eccentric anomaly
285.61995°
Mean motion
3.83616 °/min
Orbital period
93.84 mins
BSTAR
0.00049214
Loading maneuver chart data...
Computing Atmospheric mass density...
Loading historical data...
Loading historical data...
Loading historical data...
Loading historical data...
Loading historical data...
Loading historical data...
Loading historical data...

Documentation

Showing up to 5 results
|